Temp
58 58 57 54 53 52 51 49 48 48 49 49 49 49 49 49 50 51 51 51 51 51 50 50 50 49 48 47 47 48 48 48 48 47 47 47 47 48 48 48 48 48 47 47 47 47 46 45 44 45 45 44 43 43 43 43 42 42 42 42 42 42 41 41 41 41 42 42 43
55 53 51 47 47 48 48 47 47 48 48 49 48 48 49 50 50 50 50 50 51 51 50 50 49 48 47 47 47 47 47 47 47 47 46 46 47 47 47 47 47 47 47 47 47 46 45 44 43 43 44 43 43 42 42 42 42 41 41 41 42 42 42 42 42 42 42 43 43
50 49 47 47 48 48 48 47 47 47 47 47 47 48 49 50 50 50 50 50 50 50 50 49 48 47 46 46 46 47 46 46 46 45 45 46 46 47 47 47 47 47 47 47 46 45 44 43 42 43 43 44 42 42 42 43 42 42 42 41 43 43 44 44 43 43 43 44 43
46 47 47 47 47 47 47 47 46 46 47 48 47 48 49 50 51 51 50 50 49 49 49 48 47 46 46 45 46 45 45 44 44 44 45 45 46 46 47 47 47 47 47 47 46 45 44 42 43 43 43 42 41 42 43 44 42 42 43 42 43 44 44 45 44 44 45 44 44
45 45 46 46 46 47 47 46 46 47 47 48 49 49 50 50 50 50 49 49 48 48 47 47 47 46 45 45 45 44 44 44 43 43 44 45 45 46 47 47 47 47 47 46 45 44 44 43 44 44 44 43 44 44 44 43 43 43 43 44 44 44 44 44 44 44 44 44 44
45 45 45 46 46 46 46 46 46 47 48 49 49 49 49 50 49 49 48 47 47 46 46 45 45 44 44 44 44 44 44 44 44 44 44 45 46 46 47 47 46 46 45 44 44 44 44 43 44 44 44 44 44 44 43 42 42 42 43 43 44 44 44 43 44 44 44 43 42
47 47 47 47 46 47 47 46 47 47 49 49 49 48 48 48 47 46 46 46 46 46 45 45 44 44 43 43 43 43 43 44 44 44 45 46 46 46 46 46 45 45 45 45 44 44 44 43 44 44 43 43 44 43 42 43 42 42 42 42 43 44 43 42 43 43 42 41 40
48 48 48 48 48 48 48 48 49 49 49 49 48 47 46 46 46 45 45 46 45 45 45 44 44 43 43 43 43 43 43 44 44 45 45 46 46 45 45 45 45 45 45 45 45 44 44 44 44 44 43 43 44 43 42 41 40 40 41 41 42 42 42 43 42 42 42 40 40
47 47 48 48 48 48 48 49 49 49 48 47 46 45 45 45 45 45 45 45 44 44 44 44 43 43 43 43 43 43 44 44 45 46 46 46 46 46 46 45 45 45 45 45 45 44 44 44 44 43 43 43 43 42 41 40 40 39 39 40 40 41 41 40 40 40 40 40 40
47 47 47 47 47 47 48 49 48 48 47 47 46 45 45 44 44 44 44 44 44 44 43 43 43 43 43 43 43 44 45 46 47 47 47 47 47 47 47 47 46 46 45 45 44 43 42 42 42 42 41 41 41 40 40 39 39 38 39 40 40 39 39 39 39 39 39 40 40
47 47 47 47 47 47 48 49 48 48 48 47 47 46 46 45 45 45 45 45 44 44 43 43 43 43 44 44 45 46 47 47 48 48 47 47 47 46 46 46 45 45 44 44 43 42 41 41 41 40 40 40 40 40 40 39 39 38 38 39 38 38 38 38 39 39 39 40 39
47 46 47 47 47 47 48 49 49 49 48 48 47 47 47 46 46 46 45 45 44 44 44 45 45 45 46 46 47 47 47 48 47 47 46 46 45 45 44 44 44 44 44 43 43 42 42 42 42 41 41 40 41 41 40 39 39 39 38 38 38 38 38 39 39 40 40 40 39
46 46 46 47 47 48 48 49 49 49 48 48 48 47 47 47 47 46 46 46 45 45 46 47 47 47 47 48 48 48 47 47 46 45 45 44 44 43 43 43 43 43 43 43 42 42 43 42 42 42 41 41 41 41 40 39 39 39 39 38 38 38 38 38 39 39 39 38 39
45 45 46 47 48 48 49 48 49 48 48 47 47 47 47 47 47 46 46 46 46 46 47 47 47 47 47 48 47 47 47 46 46 45 44 44 44 44 43 44 43 43 43 43 42 42 42 42 42 41 41 41 40 40 39 39 38 38 38 38 38 38 38 38 38 38 38 38 38
45 45 46 48 48 48 48 48 48 48 47 47 47 47 47 47 46 46 46 46 46 46 46 47 47 47 47 47 47 47 46 46 45 44 44 44 44 44 43 44 43 43 43 43 42 41 41 41 41 41 40 40 40 40 39 39 38 38 38 38 38 38 38 38 38 38 38 37 37
45 46 47 48 48 47 47 46 47 47 46 46 47 47 47 47 46 46 45 45 45 46 46 46 46 46 46 46 46 46 46 45 44 44 44 44 44 44 44 43 43 43 43 43 42 42 41 41 40 40 40 39 39 39 39 39 38 38 38 38 38 38 38 38 38 38 38 37 37
47 48 48 48 47 47 46 45 46 46 46 46 46 46 46 46 46 45 45 45 45 45 45 45 45 45 45 44 44 45 44 44 44 44 44 44 44 44 44 44 43 43 43 43 42 42 42 41 40 40 39 38 39 39 39 39 38 38 38 38 38 38 38 38 38 38 37 37 37
47 47 47 47 46 46 45 45 46 46 46 46 46 46 45 45 45 45 45 45 44 44 44 44 44 44 44 43 43 43 43 43 44 44 44 44 44 44 44 43 43 43 43 42 42 41 41 41 40 40 39 38 38 38 38 38 38 38 38 38 38 38 38 38 38 38 38 37 37
47 47 47 46 46 45 45 45 46 46 46 46 45 45 45 45 45 45 45 44 44 43 43 43 42 42 42 43 42 42 42 43 43 43 44 44 44 43 43 43 42 42 42 42 41 41 41 40 40 39 39 39 39 38 38 38 38 38 38 38 38 38 38 38 38 38 38 38 38
47 47 46 46 45 45 45 46 46 46 46 45 45 45 45 45 45 45 45 44 44 43 43 42 42 42 42 42 42 42 42 43 43 43 43 43 43 42 42 42 41 41 41 41 41 40 40 40 40 39 39 39 38 38 38 38 38 37 37 37 37 37 38 38 38 38 38 38 38
47 46 46 45 45 46 46 46 46 46 45 45 44 44 44 44 44 45 45 44 44 43 43 43 42 42 42 42 42 42 42 43 43 42 42 42 41 41 41 41 41 41 41 40 40 40 40 40 39 39 39 38 38 38 38 37 37 37 37 37 37 37 37 37 37 38 38 38 39
46 45 45 46 46 47 46 46 46 45 45 44 44 44 44 44 44 44 44 44 43 43 43 43 43 43 42 42 42 42 42 42 41 41 41 41 41 41 41 41 40 40 40 40 40 40 39 39 39 38 38 38 38 37 37 37 37 37 36 36 36 36 37 37 38 38 38 38 38
45 45 46 47 47 47 46 46 46 45 45 44 44 44 44 44 44 43 43 43 43 42 43 43 42 42 42 42 42 41 41 40 40 40 40 40 40 40 40 41 40 40 40 40 39 39 38 38 38 38 38 38 37 37 37 37 37 36 36 36 35 35 36 36 36 36 36 36 36
46 46 47 48 48 47 46 46 45 45 45 44 44 44 44 43 43 43 42 42 42 42 42 42 42 42 41 41 41 41 40 39 39 39 39 39 39 39 39 40 40 40 40 40 39 39 38 38 38 38 38 38 38 38 38 37 37 36 36 35 35 35 35 35 34 34 34 34 34
46 47 47 47 47 46 46 45 45 45 45 45 45 45 44 43 42 42 42 42 41 41 41 41 41 41 41 41 40 40 39 38 38 38 38 38 38 38 39 40 40 40 40 39 40 41 40 39 39 39 39 39 38 38 37 37 36 36 35 35 35 34 34 34 34 34 35 34 35
46 46 46 46 46 45 45 45 44 44 44 44 45 44 44 43 43 42 41 41 41 40 40 40 40 40 39 40 39 38 38 38 38 37 37 37 37 37 37 39 39 39 39 40 40 40 40 40 40 39 37 37 35 34 34 33 33 33 33 33 33 33 34 34 34 34 35 36 37
45 44 44 44 44 44 44 44 43 43 43 44 44 44 44 44 43 42 41 41 40 40 40 40 39 38 37 38 37 37 36 37 36 36 36 36 36 36 36 37 37 38 38 40 40 40 40 40 40 39 37 34 32 30 29 29 29 30 30 30 32 32 33 33 33 34 35 36 36
43 43 43 43 43 43 43 43 43 43 43 43 43 44 44 43 43 42 42 41 41 40 40 39 38 37 37 37 36 35 35 35 35 35 35 35 35 35 35 36 36 36 37 39 40 40 40 40 40 40 38 34 31 30 29 28 29 29 30 30 31 32 32 32 33 34 34 35 35
42 42 42 42 42 42 42 42 42 42 43 43 43 43 43 43 43 42 42 41 41 40 39 38 37 37 36 35 35 35 35 35 35 35 35 35 34 34 34 34 34 35 37 39 39 40 40 40 40 40 39 38 32 29 28 28 28 29 30 31 32 32 33 34 34 34 34 33 33
42 42 41 41 41 41 41 41 42 42 43 43 43 43 43 42 42 42 42 41 40 39 38 38 37 36 35 34 34 35 35 35 35 35 34 33 33 33 33 33 33 34 36 39 39 40 40 40 40 39 39 38 33 30 28 28 28 29 30 32 32 33 33 33 33 33 33 33 32
42 42 41 41 41 41 41 41 42 42 42 42 43 43 43 42 42 42 41 41 40 39 38 37 36 35 34 35 35 35 35 34 34 34 33 32 32 32 32 32 32 33 36 38 39 39 40 40 39 39 38 38 34 31 29 29 29 30 31 31 32 32 33 33 33 32 32 32 32
42 41 41 40 40 40 40 41 41 42 42 42 42 42 42 42 41 41 40 40 39 38 37 36 35 34 34 34 34 34 34 34 33 33 33 32 32 31 31 32 31 33 35 38 38 39 39 39 39 38 38 37 35 32 30 30 30 31 31 31 31 32 32 33 32 32 32 32 32
40 40 40 40 39 40 40 41 41 42 42 42 42 42 42 42 41 40 39 39 38 37 36 35 34 34 34 34 34 34 33 33 33 32 32 31 31 31 31 31 32 33 35 38 38 38 38 38 38 38 37 37 35 32 31 30 31 31 31 31 31 31 31 31 31 32 32 32 32
39 39 39 39 39 40 41 41 42 41 41 41 41 41 41 40 39 39 38 37 36 35 35 35 34 34 34 34 33 33 32 32 32 31 31 30 30 30 30 31 32 34 37 37 37 37 37 37 37 37 37 36 34 32 31 30 31 31 31 31 31 31 31 32 32 32 33 33 33
38 39 39 40 40 41 41 42 41 41 40 39 40 40 39 39 38 37 36 35 35 34 34 34 34 34 34 33 33 32 31 31 31 31 30 29 29 29 29 30 30 33 36 37 37 37 37 37 37 37 36 35 33 32 31 31 31 31 31 31 31 31 32 32 33 33 34 34 34
39 38 38 39 41 41 41 40 40 40 39 38 37 37 38 37 37 36 35 34 34 33 33 33 33 33 33 32 32 31 31 30 30 30 29 29 28 28 28 28 29 31 35 36 36 37 37 37 37 37 36 34 33 32 32 33 33 32 32 32 32 31 32 33 34 34 34 35 35
41 40 39 39 41 41 40 40 40 40 39 38 37 36 36 36 35 34 33 33 33 33 33 32 32 32 32 31 31 30 30 30 30 29 29 28 27 27 27 27 28 29 32 35 36 36 36 37 36 36 35 33 33 33 33 33 33 33 32 32 33 33 33 34 34 34 35 35 35
42 40 39 39 40 40 40 40 40 40 39 38 37 36 35 34 33 33 33 33 32 32 32 32 31 31 31 30 30 30 29 29 29 28 28 28 27 27 27 27 27 28 31 34 35 36 36 36 36 36 35 33 33 33 33 33 33 33 32 33 33 33 34 34 35 35 35 34 34
42 41 41 41 41 41 41 41 40 39 38 37 36 34 33 32 32 33 33 32 32 31 31 31 31 31 31 30 30 29 29 29 28 28 27 27 27 27 27 27 27 28 30 34 35 36 36 36 36 36 36 34 34 33 33 33 33 32 33 33 33 33 34 34 35 35 34 34 35
42 42 42 42 41 41 41 40 39 38 36 35 33 33 32 32 32 33 33 32 31 31 31 31 30 31 31 30 30 29 28 28 28 28 27 26 27 29 30 26 26 27 30 33 35 35 36 36 36 36 36 34 34 34 33 33 32 32 32 33 33 33 34 34 34 34 34 33 34
43 42 42 42 41 41 40 39 38 36 34 33 32 32 32 32 32 32 32 31 31 31 31 31 31 30 30 30 30 29 28 28 28 27 26 25 26 28 29 26 26 27 29 32 34 35 36 36 36 36 36 34 34 34 33 33 32 32 32 32 33 33 33 33 33 33 33 33 33
MSLP
1012.58 1012.54 1012.50 1012.42 1012.38 1012.42 1012.50 1012.62 1012.66 1012.74 1012.86 1013.06 1013.30 1013.50 1013.66 1013.90 1014.06 1014.34 1014.58 1014.74 1015.02 1015.34 1015.62 1015.86 1016.06 1016.30 1016.50 1016.66 1016.78 1016.94 1017.06 1017.18 1017.30 1017.42 1017.62 1017.78 1018.14 1018.38 1018.58 1018.70 1018.78 1018.82 1018.90 1018.94 1018.94 1018.94 1018.94 1018.82 1018.78 1018.66 1018.62 1018.50 1018.50 1018.50 1018.42 1018.34 1018.34 1018.34 1018.30 1018.26 1018.18 1018.10 1018.06 1017.98 1017.90 1017.78 1017.66 1017.54 1017.38
1012.50 1012.50 1012.46 1012.46 1012.46 1012.54 1012.66 1012.82 1012.94 1012.94 1013.06 1013.22 1013.46 1013.66 1013.78 1014.02 1014.26 1014.58 1014.82 1015.02 1015.22 1015.46 1015.70 1015.94 1016.18 1016.34 1016.54 1016.70 1016.86 1017.06 1017.22 1017.38 1017.54 1017.74 1017.90 1018.10 1018.34 1018.54 1018.66 1018.78 1018.82 1018.90 1018.94 1018.94 1018.94 1018.90 1018.78 1018.70 1018.66 1018.58 1018.50 1018.42 1018.42 1018.38 1018.34 1018.22 1018.26 1018.22 1018.22 1018.14 1018.06 1017.98 1017.94 1017.82 1017.70 1017.58 1017.46 1017.38 1017.22
1012.50 1012.46 1012.42 1012.46 1012.50 1012.66 1012.94 1013.14 1013.22 1013.22 1013.34 1013.50 1013.70 1013.82 1013.98 1014.22 1014.42 1014.74 1015.02 1015.22 1015.42 1015.66 1015.86 1016.06 1016.30 1016.50 1016.66 1016.86 1017.06 1017.26 1017.50 1017.66 1017.78 1017.94 1018.10 1018.34 1018.50 1018.66 1018.74 1018.82 1018.82 1018.82 1018.86 1018.82 1018.78 1018.66 1018.62 1018.50 1018.50 1018.42 1018.34 1018.34 1018.34 1018.30 1018.22 1018.14 1018.14 1018.14 1018.06 1018.02 1017.94 1017.86 1017.78 1017.66 1017.50 1017.38 1017.26 1017.18 1017.06
1012.50 1012.42 1012.42 1012.46 1012.58 1012.78 1013.02 1013.26 1013.42 1013.50 1013.54 1013.70 1013.86 1014.02 1014.18 1014.34 1014.62 1014.90 1015.14 1015.38 1015.62 1015.82 1016.02 1016.22 1016.42 1016.66 1016.90 1017.14 1017.38 1017.50 1017.66 1017.78 1017.94 1018.06 1018.26 1018.38 1018.50 1018.62 1018.66 1018.70 1018.70 1018.66 1018.66 1018.58 1018.50 1018.46 1018.38 1018.34 1018.30 1018.22 1018.22 1018.22 1018.22 1018.22 1018.14 1018.06 1018.02 1017.98 1017.94 1017.82 1017.74 1017.66 1017.62 1017.46 1017.34 1017.22 1017.10 1017.02 1016.94
1012.42 1012.38 1012.42 1012.50 1012.58 1012.78 1013.02 1013.30 1013.50 1013.62 1013.70 1013.82 1014.02 1014.22 1014.38 1014.58 1014.78 1015.02 1015.26 1015.50 1015.78 1016.06 1016.22 1016.42 1016.66 1016.94 1017.22 1017.38 1017.50 1017.66 1017.78 1017.86 1018.06 1018.22 1018.34 1018.42 1018.50 1018.54 1018.50 1018.50 1018.42 1018.38 1018.34 1018.26 1018.22 1018.22 1018.14 1018.14 1018.10 1018.06 1018.06 1018.06 1018.06 1017.98 1017.94 1017.90 1017.86 1017.78 1017.74 1017.66 1017.54 1017.50 1017.42 1017.30 1017.14 1017.06 1016.94 1016.90 1016.78
1012.42 1012.46 1012.46 1012.54 1012.66 1012.82 1013.06 1013.34 1013.46 1013.62 1013.78 1013.98 1014.18 1014.38 1014.62 1014.78 1014.94 1015.14 1015.38 1015.66 1015.94 1016.22 1016.46 1016.74 1016.98 1017.22 1017.38 1017.50 1017.58 1017.74 1017.86 1017.98 1018.06 1018.22 1018.34 1018.38 1018.34 1018.30 1018.22 1018.14 1018.10 1018.06 1018.06 1018.06 1017.98 1017.94 1017.94 1017.98 1017.98 1017.94 1017.94 1017.94 1017.86 1017.78 1017.74 1017.74 1017.74 1017.66 1017.62 1017.50 1017.38 1017.26 1017.22 1017.14 1017.02 1016.90 1016.82 1016.78 1016.66
1012.42 1012.54 1012.62 1012.66 1012.78 1012.94 1013.18 1013.38 1013.54 1013.74 1013.94 1014.14 1014.34 1014.58 1014.78 1014.98 1015.10 1015.26 1015.50 1015.74 1016.02 1016.34 1016.66 1016.94 1017.14 1017.30 1017.42 1017.54 1017.66 1017.78 1017.94 1018.06 1018.14 1018.22 1018.30 1018.22 1018.14 1018.06 1017.94 1017.90 1017.86 1017.82 1017.82 1017.82 1017.82 1017.78 1017.78 1017.78 1017.82 1017.78 1017.78 1017.74 1017.70 1017.66 1017.58 1017.54 1017.54 1017.50 1017.42 1017.34 1017.22 1017.10 1017.02 1016.94 1016.82 1016.78 1016.74 1016.66 1016.62
1012.58 1012.66 1012.78 1012.86 1012.94 1013.06 1013.26 1013.50 1013.66 1013.86 1014.10 1014.34 1014.54 1014.74 1014.94 1015.10 1015.22 1015.38 1015.66 1015.90 1016.22 1016.50 1016.78 1016.94 1017.10 1017.22 1017.38 1017.54 1017.66 1017.82 1017.94 1018.06 1018.14 1018.18 1018.10 1018.06 1017.90 1017.78 1017.74 1017.70 1017.74 1017.74 1017.70 1017.66 1017.66 1017.66 1017.62 1017.66 1017.66 1017.66 1017.62 1017.54 1017.50 1017.42 1017.38 1017.38 1017.34 1017.30 1017.22 1017.18 1017.06 1016.94 1016.82 1016.78 1016.66 1016.66 1016.62 1016.54 1016.50
1012.90 1012.98 1013.06 1013.14 1013.22 1013.26 1013.38 1013.58 1013.78 1014.06 1014.30 1014.50 1014.70 1014.86 1015.02 1015.22 1015.38 1015.62 1015.86 1016.10 1016.38 1016.58 1016.74 1016.90 1017.06 1017.22 1017.42 1017.62 1017.74 1017.86 1017.98 1018.02 1018.02 1017.94 1017.82 1017.70 1017.62 1017.58 1017.54 1017.54 1017.54 1017.54 1017.50 1017.50 1017.50 1017.50 1017.50 1017.50 1017.46 1017.46 1017.42 1017.38 1017.38 1017.26 1017.22 1017.18 1017.18 1017.14 1017.06 1017.02 1016.90 1016.78 1016.70 1016.66 1016.58 1016.50 1016.50 1016.42 1016.38
1013.26 1013.38 1013.42 1013.50 1013.58 1013.66 1013.74 1013.82 1014.02 1014.22 1014.42 1014.62 1014.78 1014.98 1015.18 1015.38 1015.62 1015.78 1016.02 1016.22 1016.42 1016.54 1016.70 1016.90 1017.06 1017.26 1017.50 1017.66 1017.78 1017.86 1017.86 1017.82 1017.74 1017.58 1017.46 1017.38 1017.38 1017.38 1017.34 1017.34 1017.34 1017.30 1017.34 1017.34 1017.34 1017.38 1017.38 1017.38 1017.38 1017.34 1017.26 1017.22 1017.22 1017.14 1017.06 1017.06 1017.06 1017.06 1016.94 1016.82 1016.78 1016.66 1016.58 1016.50 1016.46 1016.42 1016.34 1016.34 1016.26
1013.50 1013.62 1013.66 1013.78 1013.94 1014.02 1014.06 1014.14 1014.26 1014.38 1014.58 1014.78 1014.94 1015.18 1015.38 1015.62 1015.78 1015.94 1016.10 1016.26 1016.38 1016.54 1016.74 1016.94 1017.14 1017.34 1017.50 1017.62 1017.66 1017.66 1017.54 1017.38 1017.26 1017.18 1017.10 1017.10 1017.10 1017.10 1017.10 1017.10 1017.14 1017.18 1017.18 1017.22 1017.22 1017.22 1017.22 1017.22 1017.22 1017.18 1017.14 1017.10 1017.06 1016.98 1016.94 1016.90 1016.90 1016.86 1016.78 1016.66 1016.62 1016.54 1016.50 1016.38 1016.34 1016.26 1016.22 1016.14 1016.10
1013.66 1013.78 1013.86 1013.98 1014.10 1014.22 1014.30 1014.34 1014.46 1014.62 1014.78 1014.94 1015.10 1015.30 1015.46 1015.66 1015.78 1015.94 1016.10 1016.22 1016.42 1016.62 1016.78 1016.94 1017.14 1017.26 1017.34 1017.38 1017.34 1017.22 1017.10 1016.98 1016.94 1016.94 1016.94 1016.94 1016.98 1016.98 1016.98 1017.02 1017.02 1017.06 1017.06 1017.06 1017.06 1017.06 1017.06 1017.02 1017.02 1017.02 1016.94 1016.94 1016.90 1016.82 1016.78 1016.70 1016.70 1016.66 1016.58 1016.46 1016.42 1016.38 1016.30 1016.22 1016.18 1016.06 1016.02 1015.98 1015.94
1013.78 1013.94 1014.02 1014.06 1014.22 1014.30 1014.38 1014.50 1014.58 1014.74 1014.90 1015.06 1015.18 1015.34 1015.46 1015.58 1015.66 1015.82 1016.02 1016.22 1016.46 1016.66 1016.78 1016.86 1016.94 1017.02 1017.06 1017.06 1016.98 1016.90 1016.82 1016.78 1016.78 1016.82 1016.86 1016.86 1016.86 1016.90 1016.94 1016.94 1016.90 1016.90 1016.90 1016.86 1016.90 1016.90 1016.90 1016.90 1016.90 1016.90 1016.82 1016.78 1016.74 1016.66 1016.66 1016.58 1016.54 1016.50 1016.42 1016.34 1016.26 1016.22 1016.14 1016.06 1015.98 1015.90 1015.86 1015.82 1015.78
1013.94 1014.06 1014.10 1014.18 1014.26 1014.34 1014.46 1014.58 1014.74 1014.86 1015.02 1015.10 1015.22 1015.30 1015.38 1015.50 1015.62 1015.74 1015.94 1016.22 1016.42 1016.54 1016.62 1016.66 1016.74 1016.78 1016.78 1016.78 1016.74 1016.70 1016.66 1016.66 1016.70 1016.74 1016.78 1016.74 1016.74 1016.78 1016.78 1016.78 1016.74 1016.74 1016.74 1016.78 1016.78 1016.78 1016.78 1016.78 1016.78 1016.74 1016.70 1016.66 1016.58 1016.54 1016.50 1016.46 1016.42 1016.34 1016.30 1016.22 1016.14 1016.06 1015.94 1015.90 1015.78 1015.74 1015.70 1015.66 1015.58
1014.06 1014.18 1014.22 1014.22 1014.34 1014.46 1014.54 1014.66 1014.82 1014.94 1015.06 1015.14 1015.22 1015.26 1015.34 1015.46 1015.62 1015.78 1015.94 1016.14 1016.30 1016.38 1016.46 1016.50 1016.58 1016.58 1016.54 1016.54 1016.54 1016.54 1016.54 1016.58 1016.62 1016.66 1016.66 1016.66 1016.66 1016.66 1016.66 1016.62 1016.62 1016.66 1016.66 1016.66 1016.66 1016.66 1016.66 1016.66 1016.62 1016.58 1016.54 1016.50 1016.42 1016.34 1016.34 1016.30 1016.26 1016.22 1016.14 1016.06 1016.02 1015.90 1015.78 1015.74 1015.66 1015.62 1015.54 1015.50 1015.46
1014.18 1014.22 1014.30 1014.34 1014.46 1014.54 1014.66 1014.78 1014.90 1015.02 1015.10 1015.18 1015.22 1015.22 1015.34 1015.46 1015.62 1015.78 1015.98 1016.14 1016.22 1016.34 1016.38 1016.42 1016.46 1016.46 1016.42 1016.42 1016.42 1016.46 1016.50 1016.54 1016.54 1016.54 1016.54 1016.54 1016.54 1016.50 1016.50 1016.50 1016.50 1016.50 1016.50 1016.50 1016.50 1016.50 1016.46 1016.46 1016.46 1016.42 1016.38 1016.34 1016.30 1016.22 1016.14 1016.10 1016.06 1016.02 1015.94 1015.90 1015.78 1015.74 1015.66 1015.58 1015.50 1015.46 1015.38 1015.34 1015.30
1014.26 1014.34 1014.38 1014.46 1014.54 1014.66 1014.78 1014.86 1014.94 1015.06 1015.14 1015.18 1015.22 1015.26 1015.38 1015.50 1015.66 1015.82 1015.98 1016.10 1016.22 1016.26 1016.34 1016.34 1016.34 1016.38 1016.38 1016.42 1016.42 1016.42 1016.42 1016.46 1016.50 1016.50 1016.46 1016.46 1016.42 1016.42 1016.42 1016.38 1016.34 1016.34 1016.34 1016.34 1016.34 1016.34 1016.30 1016.26 1016.26 1016.22 1016.22 1016.18 1016.14 1016.06 1016.02 1015.94 1015.90 1015.82 1015.78 1015.70 1015.62 1015.50 1015.46 1015.38 1015.30 1015.26 1015.22 1015.18 1015.10
1014.42 1014.50 1014.54 1014.62 1014.66 1014.78 1014.86 1014.94 1015.02 1015.10 1015.18 1015.22 1015.26 1015.34 1015.42 1015.54 1015.70 1015.82 1015.94 1016.06 1016.10 1016.22 1016.26 1016.30 1016.34 1016.34 1016.34 1016.38 1016.38 1016.38 1016.38 1016.38 1016.38 1016.34 1016.34 1016.30 1016.26 1016.26 1016.26 1016.22 1016.22 1016.22 1016.22 1016.22 1016.22 1016.22 1016.14 1016.06 1016.06 1016.06 1016.02 1016.02 1015.94 1015.90 1015.82 1015.78 1015.70 1015.66 1015.54 1015.46 1015.38 1015.30 1015.22 1015.18 1015.10 1015.06 1015.02 1014.94 1014.90
1014.58 1014.66 1014.66 1014.74 1014.78 1014.86 1014.94 1015.02 1015.06 1015.18 1015.22 1015.30 1015.34 1015.42 1015.50 1015.62 1015.70 1015.82 1015.94 1015.98 1016.06 1016.10 1016.18 1016.26 1016.30 1016.30 1016.34 1016.34 1016.34 1016.34 1016.34 1016.30 1016.26 1016.22 1016.22 1016.14 1016.14 1016.14 1016.14 1016.10 1016.06 1016.06 1016.06 1016.06 1016.06 1016.02 1015.98 1015.94 1015.90 1015.86 1015.82 1015.78 1015.74 1015.66 1015.62 1015.54 1015.50 1015.42 1015.34 1015.22 1015.14 1015.06 1015.02 1014.94 1014.90 1014.82 1014.78 1014.70 1014.66
1014.70 1014.74 1014.78 1014.82 1014.90 1014.94 1014.98 1015.06 1015.10 1015.22 1015.30 1015.38 1015.46 1015.50 1015.62 1015.66 1015.78 1015.86 1015.94 1015.98 1016.02 1016.06 1016.14 1016.22 1016.26 1016.26 1016.26 1016.26 1016.26 1016.26 1016.22 1016.18 1016.14 1016.10 1016.06 1016.06 1016.06 1016.06 1016.02 1015.98 1015.94 1015.94 1015.94 1015.94 1015.90 1015.82 1015.78 1015.78 1015.74 1015.70 1015.66 1015.62 1015.54 1015.50 1015.38 1015.34 1015.26 1015.18 1015.06 1014.98 1014.94 1014.86 1014.78 1014.70 1014.66 1014.58 1014.54 1014.46 1014.42
1014.78 1014.78 1014.82 1014.90 1014.94 1014.98 1015.06 1015.06 1015.18 1015.26 1015.38 1015.46 1015.50 1015.58 1015.66 1015.74 1015.78 1015.86 1015.90 1015.94 1015.98 1016.02 1016.06 1016.10 1016.18 1016.22 1016.22 1016.18 1016.18 1016.14 1016.06 1016.02 1016.02 1015.98 1015.94 1015.94 1015.94 1015.94 1015.90 1015.86 1015.82 1015.82 1015.78 1015.78 1015.74 1015.70 1015.66 1015.62 1015.54 1015.50 1015.46 1015.38 1015.38 1015.30 1015.22 1015.10 1015.06 1014.94 1014.86 1014.78 1014.66 1014.62 1014.54 1014.46 1014.42 1014.34 1014.30 1014.22 1014.18
1014.86 1014.86 1014.90 1014.94 1014.98 1015.02 1015.06 1015.18 1015.30 1015.38 1015.46 1015.50 1015.58 1015.66 1015.74 1015.82 1015.90 1015.90 1015.90 1015.94 1015.94 1015.98 1016.02 1016.06 1016.06 1016.10 1016.10 1016.10 1016.06 1016.02 1015.94 1015.94 1015.94 1015.90 1015.86 1015.86 1015.78 1015.78 1015.74 1015.70 1015.70 1015.66 1015.66 1015.62 1015.58 1015.50 1015.50 1015.42 1015.38 1015.34 1015.26 1015.18 1015.10 1015.06 1014.94 1014.90 1014.78 1014.70 1014.62 1014.54 1014.46 1014.34 1014.30 1014.22 1014.18 1014.14 1014.06 1014.02 1013.94
1014.94 1014.94 1014.94 1014.94 1015.02 1015.14 1015.26 1015.38 1015.46 1015.50 1015.54 1015.62 1015.70 1015.78 1015.86 1015.94 1015.94 1015.94 1015.94 1015.94 1015.94 1015.94 1015.98 1016.02 1016.02 1016.02 1015.98 1015.94 1015.94 1015.90 1015.90 1015.86 1015.82 1015.78 1015.74 1015.74 1015.70 1015.66 1015.62 1015.58 1015.58 1015.54 1015.50 1015.46 1015.38 1015.38 1015.30 1015.22 1015.18 1015.10 1015.06 1014.98 1014.90 1014.82 1014.74 1014.66 1014.54 1014.50 1014.38 1014.30 1014.22 1014.18 1014.06 1014.02 1013.94 1013.94 1013.90 1013.86 1013.82
1015.02 1015.02 1015.06 1015.14 1015.22 1015.38 1015.50 1015.54 1015.62 1015.66 1015.74 1015.78 1015.90 1015.94 1015.94 1015.94 1015.94 1015.90 1015.90 1015.90 1015.90 1015.94 1015.94 1015.94 1015.94 1015.90 1015.86 1015.82 1015.78 1015.78 1015.78 1015.78 1015.78 1015.70 1015.66 1015.62 1015.58 1015.54 1015.50 1015.46 1015.42 1015.38 1015.34 1015.30 1015.22 1015.18 1015.10 1015.06 1014.94 1014.90 1014.78 1014.70 1014.62 1014.50 1014.46 1014.38 1014.34 1014.30 1014.22 1014.14 1014.06 1013.98 1013.94 1013.86 1013.78 1013.78 1013.74 1013.70 1013.66
1015.14 1015.22 1015.30 1015.42 1015.54 1015.66 1015.70 1015.74 1015.78 1015.82 1015.94 1015.98 1015.98 1015.98 1015.98 1015.94 1015.90 1015.90 1015.90 1015.90 1015.90 1015.90 1015.90 1015.90 1015.86 1015.82 1015.78 1015.78 1015.70 1015.70 1015.70 1015.66 1015.66 1015.62 1015.54 1015.50 1015.50 1015.42 1015.38 1015.34 1015.26 1015.22 1015.18 1015.10 1015.02 1014.94 1014.86 1014.82 1014.74 1014.66 1014.58 1014.50 1014.42 1014.34 1014.26 1014.22 1014.22 1014.18 1014.14 1014.06 1014.02 1013.94 1013.82 1013.70 1013.66 1013.62 1013.58 1013.50 1013.50
1015.38 1015.50 1015.66 1015.74 1015.78 1015.86 1015.90 1015.94 1015.98 1015.98 1016.02 1016.06 1015.98 1015.94 1015.94 1015.90 1015.82 1015.82 1015.86 1015.90 1015.90 1015.86 1015.86 1015.82 1015.78 1015.78 1015.70 1015.66 1015.66 1015.66 1015.62 1015.58 1015.54 1015.50 1015.50 1015.46 1015.38 1015.34 1015.26 1015.22 1015.14 1015.06 1015.02 1014.94 1014.82 1014.78 1014.66 1014.62 1014.50 1014.50 1014.46 1014.38 1014.34 1014.30 1014.22 1014.22 1014.14 1014.10 1014.06 1014.06 1013.98 1013.90 1013.78 1013.66 1013.54 1013.50 1013.42 1013.38 1013.30
1015.58 1015.74 1015.82 1015.90 1015.94 1015.98 1016.02 1016.06 1016.06 1016.06 1016.06 1016.06 1015.94 1015.94 1015.86 1015.82 1015.78 1015.82 1015.86 1015.86 1015.82 1015.78 1015.78 1015.74 1015.70 1015.66 1015.66 1015.66 1015.66 1015.62 1015.54 1015.50 1015.46 1015.42 1015.38 1015.38 1015.30 1015.22 1015.18 1015.10 1015.06 1014.94 1014.90 1014.78 1014.70 1014.62 1014.54 1014.46 1014.38 1014.34 1014.30 1014.22 1014.22 1014.22 1014.22 1014.18 1014.10 1014.06 1014.02 1013.98 1013.90 1013.78 1013.74 1013.62 1013.46 1013.38 1013.30 1013.22 1013.14
1015.70 1015.78 1015.86 1015.94 1015.98 1016.02 1016.02 1016.02 1016.06 1016.02 1015.98 1015.94 1015.90 1015.86 1015.78 1015.78 1015.78 1015.82 1015.86 1015.86 1015.78 1015.78 1015.70 1015.66 1015.62 1015.58 1015.58 1015.58 1015.58 1015.54 1015.50 1015.42 1015.38 1015.34 1015.26 1015.22 1015.18 1015.10 1015.06 1014.94 1014.90 1014.78 1014.74 1014.66 1014.54 1014.46 1014.38 1014.26 1014.22 1014.10 1014.06 1014.06 1014.06 1014.06 1014.06 1014.06 1013.98 1013.94 1013.90 1013.86 1013.78 1013.66 1013.62 1013.50 1013.38 1013.22 1013.14 1013.06 1012.98
1015.66 1015.78 1015.82 1015.90 1015.90 1015.94 1015.94 1015.94 1015.94 1015.90 1015.86 1015.86 1015.82 1015.78 1015.78 1015.82 1015.82 1015.86 1015.82 1015.82 1015.78 1015.70 1015.66 1015.62 1015.50 1015.50 1015.50 1015.54 1015.50 1015.42 1015.38 1015.34 1015.22 1015.18 1015.10 1015.06 1015.06 1014.98 1014.94 1014.86 1014.78 1014.66 1014.58 1014.50 1014.38 1014.30 1014.22 1014.10 1014.02 1013.94 1013.86 1013.82 1013.94 1013.94 1013.94 1013.94 1013.86 1013.78 1013.74 1013.70 1013.62 1013.54 1013.42 1013.34 1013.22 1013.14 1013.06 1012.98 1012.90
1015.54 1015.66 1015.70 1015.74 1015.74 1015.78 1015.78 1015.78 1015.78 1015.78 1015.78 1015.78 1015.78 1015.74 1015.78 1015.82 1015.82 1015.86 1015.86 1015.78 1015.66 1015.58 1015.50 1015.46 1015.46 1015.46 1015.46 1015.42 1015.38 1015.34 1015.26 1015.14 1015.06 1015.06 1015.02 1015.02 1014.94 1014.90 1014.78 1014.70 1014.62 1014.50 1014.42 1014.30 1014.22 1014.10 1014.02 1013.94 1013.82 1013.78 1013.74 1013.70 1013.78 1013.78 1013.74 1013.74 1013.74 1013.66 1013.58 1013.50 1013.42 1013.38 1013.26 1013.18 1013.10 1013.02 1012.94 1012.86 1012.78
1015.46 1015.50 1015.58 1015.66 1015.66 1015.70 1015.74 1015.74 1015.78 1015.74 1015.74 1015.74 1015.74 1015.74 1015.78 1015.86 1015.90 1015.82 1015.74 1015.66 1015.50 1015.42 1015.38 1015.34 1015.38 1015.42 1015.38 1015.26 1015.22 1015.18 1015.14 1015.06 1014.98 1014.94 1014.94 1014.94 1014.86 1014.78 1014.66 1014.54 1014.50 1014.38 1014.26 1014.18 1014.06 1013.94 1013.90 1013.78 1013.70 1013.66 1013.66 1013.62 1013.66 1013.66 1013.62 1013.58 1013.54 1013.50 1013.42 1013.34 1013.22 1013.14 1013.06 1012.98 1012.90 1012.78 1012.70 1012.62 1012.54
1015.42 1015.50 1015.50 1015.58 1015.66 1015.66 1015.66 1015.66 1015.70 1015.70 1015.66 1015.70 1015.70 1015.74 1015.78 1015.82 1015.78 1015.66 1015.54 1015.46 1015.38 1015.34 1015.34 1015.34 1015.34 1015.34 1015.26 1015.22 1015.18 1015.10 1015.06 1014.98 1014.94 1014.90 1014.82 1014.78 1014.74 1014.66 1014.50 1014.42 1014.34 1014.26 1014.18 1014.02 1013.94 1013.86 1013.78 1013.70 1013.66 1013.62 1013.58 1013.50 1013.50 1013.50 1013.50 1013.42 1013.38 1013.30 1013.22 1013.10 1013.02 1012.94 1012.82 1012.74 1012.62 1012.50 1012.38 1012.26 1012.22
1015.42 1015.50 1015.54 1015.54 1015.62 1015.62 1015.62 1015.62 1015.62 1015.62 1015.66 1015.70 1015.70 1015.78 1015.78 1015.70 1015.58 1015.46 1015.38 1015.34 1015.30 1015.34 1015.34 1015.34 1015.34 1015.30 1015.22 1015.18 1015.10 1015.06 1014.98 1014.94 1014.82 1014.74 1014.70 1014.66 1014.62 1014.50 1014.42 1014.34 1014.22 1014.14 1014.02 1013.90 1013.82 1013.78 1013.66 1013.62 1013.58 1013.50 1013.46 1013.42 1013.38 1013.38 1013.30 1013.26 1013.18 1013.06 1012.94 1012.82 1012.74 1012.66 1012.54 1012.42 1012.30 1012.18 1012.06 1011.94 1011.82
1015.42 1015.46 1015.50 1015.50 1015.50 1015.50 1015.50 1015.54 1015.58 1015.66 1015.66 1015.66 1015.70 1015.66 1015.62 1015.54 1015.46 1015.38 1015.34 1015.26 1015.26 1015.26 1015.26 1015.26 1015.22 1015.18 1015.10 1015.06 1015.02 1014.94 1014.86 1014.78 1014.74 1014.66 1014.58 1014.54 1014.50 1014.42 1014.34 1014.22 1014.06 1013.94 1013.86 1013.78 1013.78 1013.70 1013.62 1013.54 1013.50 1013.38 1013.34 1013.30 1013.26 1013.22 1013.18 1013.06 1012.94 1012.86 1012.74 1012.62 1012.46 1012.34 1012.22 1012.10 1011.98 1011.86 1011.74 1011.66 1011.50
1015.42 1015.46 1015.50 1015.46 1015.46 1015.46 1015.50 1015.54 1015.58 1015.62 1015.62 1015.66 1015.66 1015.58 1015.50 1015.42 1015.38 1015.38 1015.34 1015.26 1015.26 1015.22 1015.22 1015.14 1015.10 1015.06 1014.98 1014.94 1014.90 1014.86 1014.78 1014.70 1014.66 1014.54 1014.50 1014.46 1014.38 1014.34 1014.22 1014.06 1013.94 1013.86 1013.78 1013.74 1013.66 1013.58 1013.50 1013.46 1013.38 1013.30 1013.22 1013.14 1013.10 1013.06 1012.94 1012.86 1012.70 1012.58 1012.46 1012.34 1012.18 1012.06 1011.94 1011.78 1011.62 1011.50 1011.38 1011.26 1011.14
1015.38 1015.42 1015.50 1015.50 1015.46 1015.46 1015.50 1015.50 1015.54 1015.58 1015.58 1015.62 1015.62 1015.50 1015.42 1015.38 1015.34 1015.34 1015.30 1015.22 1015.22 1015.22 1015.18 1015.06 1015.06 1014.98 1014.94 1014.86 1014.78 1014.78 1014.70 1014.66 1014.58 1014.50 1014.38 1014.34 1014.30 1014.22 1014.10 1014.02 1013.90 1013.78 1013.74 1013.66 1013.58 1013.50 1013.42 1013.30 1013.22 1013.14 1013.06 1012.98 1012.90 1012.82 1012.70 1012.58 1012.42 1012.26 1012.14 1012.06 1011.90 1011.74 1011.58 1011.42 1011.22 1011.06 1010.94 1010.82 1010.74
1015.38 1015.46 1015.50 1015.50 1015.50 1015.50 1015.50 1015.50 1015.50 1015.58 1015.58 1015.54 1015.50 1015.46 1015.42 1015.38 1015.34 1015.26 1015.22 1015.18 1015.18 1015.18 1015.14 1015.06 1015.02 1014.94 1014.90 1014.82 1014.78 1014.66 1014.62 1014.54 1014.50 1014.42 1014.34 1014.22 1014.18 1014.10 1014.02 1013.94 1013.82 1013.78 1013.70 1013.62 1013.50 1013.38 1013.30 1013.18 1013.06 1012.98 1012.90 1012.78 1012.70 1012.58 1012.42 1012.30 1012.14 1011.98 1011.82 1011.66 1011.50 1011.38 1011.18 1011.02 1010.78 1010.66 1010.50 1010.38 1010.30
1015.42 1015.50 1015.54 1015.54 1015.50 1015.50 1015.50 1015.50 1015.50 1015.50 1015.46 1015.42 1015.38 1015.38 1015.38 1015.34 1015.30 1015.22 1015.18 1015.10 1015.14 1015.18 1015.14 1015.06 1014.98 1014.90 1014.82 1014.78 1014.66 1014.58 1014.50 1014.42 1014.38 1014.34 1014.22 1014.14 1014.06 1014.02 1013.94 1013.86 1013.78 1013.70 1013.62 1013.50 1013.38 1013.30 1013.18 1013.06 1012.94 1012.78 1012.70 1012.62 1012.50 1012.34 1012.18 1012.06 1011.86 1011.70 1011.50 1011.38 1011.18 1010.98 1010.82 1010.62 1010.42 1010.26 1010.10 1010.02 1009.94
1015.46 1015.46 1015.46 1015.46 1015.46 1015.42 1015.38 1015.38 1015.38 1015.38 1015.38 1015.38 1015.38 1015.38 1015.34 1015.26 1015.22 1015.18 1015.10 1015.06 1015.06 1015.06 1015.06 1015.02 1014.94 1014.82 1014.70 1014.66 1014.58 1014.50 1014.38 1014.30 1014.22 1014.22 1014.14 1014.06 1013.94 1013.90 1013.86 1013.82 1013.70 1013.62 1013.50 1013.38 1013.26 1013.18 1013.06 1012.94 1012.78 1012.62 1012.50 1012.38 1012.26 1012.10 1011.94 1011.78 1011.58 1011.42 1011.22 1011.06 1010.86 1010.66 1010.50 1010.26 1010.10 1009.94 1009.86 1009.78 1009.70
1015.50 1015.42 1015.38 1015.38 1015.34 1015.30 1015.30 1015.30 1015.34 1015.34 1015.38 1015.38 1015.38 1015.34 1015.30 1015.22 1015.18 1015.06 1015.02 1014.98 1015.02 1015.02 1014.98 1014.94 1014.82 1014.70 1014.62 1014.54 1014.50 1014.46 1014.34 1014.18 1014.10 1014.06 1014.02 1013.94 1013.86 1013.78 1013.74 1013.74 1013.66 1013.54 1013.42 1013.26 1013.14 1013.06 1012.94 1012.78 1012.62 1012.46 1012.34 1012.22 1012.06 1011.90 1011.74 1011.54 1011.38 1011.22 1011.02 1010.86 1010.66 1010.42 1010.22 1010.06 1009.98 1009.86 1009.78 1009.70 1009.66
1015.42 1015.38 1015.34 1015.26 1015.26 1015.26 1015.26 1015.30 1015.34 1015.34 1015.34 1015.34 1015.34 1015.30 1015.22 1015.14 1015.10 1015.06 1014.98 1014.98 1014.94 1014.94 1014.86 1014.78 1014.70 1014.66 1014.54 1014.46 1014.42 1014.34 1014.22 1014.14 1014.02 1013.94 1013.94 1013.90 1013.82 1013.74 1013.66 1013.66 1013.58 1013.46 1013.30 1013.18 1013.06 1012.94 1012.78 1012.62 1012.50 1012.30 1012.18 1012.06 1011.86 1011.70 1011.58 1011.42 1011.22 1011.02 1010.82 1010.66 1010.50 1010.34 1010.22 1010.06 1009.98 1009.90 1009.78 1009.66 1009.54
Wind_Speed
7 6 6 5 4 3 2 1 2 2 3 4 4 4 4 4 5 5 5 5 5 5 5 5 4 5 5 6 7 7 7 8 9 10 10 10 9 8 8 7 7 7 7 8 8 8 7 7 6 5 4 4 4 4 4 4 4 4 5 5 5 5 6 7 7 8 8 8 6
6 5 4 2 1 2 3 3 3 4 4 4 4 4 5 5 5 6 5 5 5 5 5 5 5 5 6 7 8 8 9 10 10 10 9 9 8 7 7 7 7 7 7 8 8 8 7 7 5 4 4 3 3 4 4 4 4 5 5 7 6 5 5 6 7 7 8 7 6
3 2 1 2 3 4 4 4 4 5 5 5 5 5 5 5 6 6 6 6 5 5 5 4 5 6 8 9 9 9 9 8 8 8 7 6 5 6 6 6 7 8 8 8 8 8 7 6 5 4 4 4 4 4 4 5 4 5 6 7 6 5 5 6 6 6 6 5 6
1 1 2 3 5 6 6 5 5 5 6 6 5 5 5 5 6 6 6 6 6 6 6 5 6 7 8 9 9 8 7 6 6 5 4 3 4 5 6 7 8 8 9 9 9 9 8 6 5 4 4 4 5 5 5 5 5 5 5 5 5 5 5 6 5 5 5 5 5
2 2 3 5 6 7 7 6 6 6 6 5 5 5 5 5 6 6 6 6 6 6 7 8 8 8 7 7 7 6 6 5 4 3 2 3 4 6 7 8 8 9 9 9 9 8 7 6 4 4 4 5 5 5 5 6 6 5 5 5 5 5 5 5 5 5 5 5 5
3 3 4 6 7 8 8 6 7 7 6 6 6 6 6 5 5 6 6 6 7 8 9 10 8 7 6 5 5 4 4 3 2 2 3 5 6 7 8 9 9 9 8 8 7 7 7 6 5 4 5 5 5 6 6 7 6 6 6 5 5 5 5 5 5 5 5 5 5
5 5 6 7 8 8 8 7 7 7 7 7 8 8 7 6 6 7 8 7 8 8 8 7 6 5 4 4 4 3 2 1 2 3 5 6 7 7 8 9 9 8 7 7 7 7 7 6 5 5 5 5 5 6 7 7 6 6 6 6 6 5 5 5 5 5 5 6 7
5 6 6 7 8 9 10 9 8 8 7 7 8 8 8 8 9 9 9 9 8 7 5 4 4 5 4 3 2 1 1 2 4 5 6 7 8 8 8 8 8 8 8 7 7 7 7 7 5 5 5 5 5 5 6 7 7 7 7 7 6 5 5 5 4 5 5 7 7
5 6 7 7 8 9 10 10 10 9 8 8 8 9 9 10 10 10 9 7 6 5 5 4 4 4 4 2 1 1 3 4 6 7 7 7 8 8 9 8 8 8 8 8 8 8 8 6 5 5 5 5 5 5 6 7 7 7 7 7 6 5 5 5 5 5 6 7 8
6 6 7 7 7 8 9 9 9 9 9 9 10 10 10 10 9 8 7 5 5 5 4 4 4 3 2 1 2 4 5 6 7 8 8 8 8 9 9 9 8 8 8 7 7 7 6 5 5 5 5 4 5 6 7 7 7 7 7 6 6 6 6 6 6 6 6 7 8
7 6 7 7 7 7 7 8 8 8 9 10 10 10 9 8 7 6 6 5 5 5 4 4 3 3 3 4 5 6 7 7 7 7 7 8 8 8 8 8 7 7 7 6 5 4 4 4 5 6 6 5 6 6 7 7 7 8 8 6 6 7 8 7 7 7 7 7 8
7 7 7 7 7 6 6 7 7 8 8 9 9 9 8 7 7 6 5 5 5 4 4 4 4 4 5 5 6 7 7 7 7 6 6 6 6 6 6 6 6 6 6 5 4 4 4 5 6 7 7 7 6 6 7 8 8 9 9 8 8 8 8 9 9 8 7 7 8
7 6 6 7 7 6 6 6 7 7 7 8 7 7 6 6 6 6 5 5 5 4 3 4 5 5 5 6 6 6 6 5 5 5 5 5 5 5 5 5 5 5 6 6 5 4 5 6 7 8 8 9 7 7 7 8 8 9 9 9 9 9 9 10 9 9 8 8 9
6 6 6 6 7 7 6 6 6 6 6 6 6 5 5 5 5 5 5 5 4 4 4 4 4 4 5 5 5 5 5 4 4 4 5 5 5 5 5 5 6 6 6 6 5 5 6 7 7 8 8 9 9 8 8 8 8 8 9 9 9 10 10 10 9 9 8 9 9
6 5 5 6 6 6 6 6 5 5 5 5 5 4 4 4 4 4 4 4 4 3 3 3 3 3 4 4 4 4 4 4 5 5 5 5 5 6 6 6 6 6 6 6 6 6 7 7 8 8 8 9 9 9 9 8 8 8 9 9 9 10 10 10 9 9 9 9 9
5 5 5 5 6 6 5 5 4 4 4 4 4 4 4 4 4 4 4 3 2 2 1 2 2 3 3 3 4 4 4 4 5 5 5 6 6 6 6 7 7 7 7 7 7 7 7 7 7 8 8 9 9 9 9 9 9 9 9 9 9 10 10 10 9 9 9 9 8
5 5 5 5 6 6 5 4 4 3 4 4 4 4 4 4 4 4 3 2 2 1 2 3 3 3 3 3 3 3 4 4 5 5 6 6 7 7 7 7 7 7 7 8 8 8 8 8 8 8 8 8 9 9 9 9 9 9 10 10 10 10 10 10 10 10 10 10 9
5 5 5 5 5 5 5 4 4 4 4 4 4 4 4 4 4 3 3 2 2 2 3 3 3 3 3 3 3 3 3 4 5 6 6 7 7 7 7 8 7 7 7 7 8 8 9 9 9 8 8 8 9 9 9 9 10 10 10 10 10 10 10 10 10 10 10 10 10
4 4 4 4 4 4 4 4 4 4 4 4 4 4 4 4 4 3 2 2 2 2 2 2 2 2 2 3 3 3 4 4 6 7 7 7 7 7 7 7 7 7 7 7 8 8 9 9 9 9 9 9 9 9 10 10 10 10 11 11 11 11 11 11 10 10 10 10 11
4 4 4 3 3 3 3 3 3 3 3 4 4 4 4 4 3 2 1 0 1 1 1 2 2 2 3 4 4 5 5 5 6 7 7 7 7 7 7 7 7 7 8 8 8 9 9 10 10 10 10 10 10 10 11 11 11 11 11 10 10 10 11 11 10 10 10 10 11
3 3 2 2 2 3 3 3 3 3 4 4 5 5 4 3 3 2 1 1 1 1 2 2 3 4 4 5 6 6 6 5 6 6 7 6 6 7 7 7 7 8 8 8 9 9 10 10 10 10 10 10 11 11 11 11 11 11 11 10 10 10 10 10 10 10 10 10 10
2 2 2 3 3 3 4 4 4 4 4 4 5 5 4 3 2 2 2 2 2 2 2 3 4 5 5 6 7 7 6 5 6 6 6 6 6 7 7 7 8 8 9 9 9 10 10 10 10 10 10 10 10 11 11 11 11 11 11 10 10 10 10 10 10 10 10 10 9
2 3 3 4 5 5 4 4 4 4 4 5 5 4 3 2 2 2 2 2 2 2 3 3 4 5 6 6 6 6 6 6 6 6 6 6 7 7 7 7 8 9 9 9 9 9 9 9 10 10 10 10 10 11 11 11 11 10 10 10 10 10 10 10 9 9 9 9 9
4 4 4 5 5 5 4 4 4 4 4 4 3 2 2 2 3 3 3 2 2 3 3 4 4 5 6 6 6 6 6 6 7 7 7 7 7 7 8 8 8 8 8 8 8 9 9 8 8 9 9 9 10 10 10 10 9 9 9 9 9 9 9 9 9 9 9 9 8
6 6 6 6 5 4 4 4 4 4 3 2 2 2 3 4 3 3 2 2 3 4 4 5 5 5 5 6 6 6 6 6 7 7 7 7 7 8 7 7 7 7 7 7 10 11 12 10 9 8 8 8 8 8 8 7 7 7 7 7 8 8 9 9 9 9 9 9 9
7 7 6 6 4 4 3 3 3 2 2 2 3 4 4 4 3 3 2 3 3 4 5 5 5 5 5 5 5 5 5 5 6 6 7 7 8 7 7 7 7 6 6 8 10 12 13 13 12 10 8 7 6 6 6 5 5 5 6 6 7 8 8 9 10 10 10 10 10
5 5 4 3 3 2 2 1 1 1 2 3 4 5 5 4 3 3 3 4 4 5 5 5 5 4 4 4 4 5 5 5 5 6 7 7 8 8 7 7 7 6 7 9 11 12 12 12 12 11 9 6 5 4 4 4 4 5 5 5 6 7 8 9 10 10 11 11 11
3 2 1 1 0 1 1 1 2 3 4 5 5 5 4 4 4 4 4 5 5 5 5 5 4 3 3 3 4 4 5 5 5 6 7 7 8 8 8 7 6 6 8 9 11 11 12 12 12 12 11 8 5 4 3 3 4 5 5 5 6 7 8 9 10 10 11 12 12
2 1 2 2 3 3 3 3 4 4 5 5 4 4 4 4 4 5 5 6 6 6 5 4 3 3 2 3 4 4 5 5 6 6 6 7 7 7 7 7 7 7 8 10 11 12 12 13 13 13 12 10 6 4 3 3 4 4 5 6 6 8 9 10 10 11 11 12 12
3 4 4 4 4 4 4 4 4 4 4 4 4 4 4 4 5 6 7 7 7 6 5 4 3 3 3 4 4 4 5 6 6 6 6 7 7 7 7 7 7 7 8 10 11 12 13 13 13 12 11 10 7 5 4 4 4 5 6 6 7 9 10 11 11 12 12 12 12
4 5 5 5 5 4 4 4 4 4 4 4 3 3 4 4 6 6 7 7 7 6 4 3 3 4 4 4 4 5 5 6 6 6 6 7 7 8 8 8 8 8 9 11 12 12 13 13 12 11 11 10 8 6 5 5 5 6 6 7 9 10 11 12 12 13 13 14 13
4 4 4 4 4 4 4 4 4 4 4 3 3 3 4 6 6 7 6 6 5 4 4 3 3 4 4 4 4 5 6 6 6 6 7 7 7 7 7 8 7 8 9 11 11 12 12 12 12 12 12 12 9 7 6 6 7 7 8 9 10 11 12 11 11 12 14 14 14
4 4 4 4 4 4 4 4 4 3 3 3 3 5 6 7 7 7 6 5 4 3 3 3 3 4 4 5 5 5 6 6 7 7 7 7 7 7 7 7 7 7 9 10 10 11 11 11 12 13 14 14 11 9 7 8 7 7 8 9 10 11 12 13 12 13 14 14 14
3 4 4 4 4 4 4 3 2 2 3 4 5 6 7 7 7 6 5 3 2 2 2 2 3 3 4 4 5 6 6 6 7 7 7 7 7 7 7 7 6 6 8 9 10 10 11 13 14 15 16 15 11 9 8 9 8 8 9 10 11 11 12 13 14 14 15 15 15
4 4 4 4 4 3 3 2 3 3 4 5 6 7 7 6 6 5 4 3 2 2 2 3 3 4 4 5 5 5 6 6 7 7 7 7 7 7 7 6 6 6 8 9 10 11 13 14 15 17 17 15 10 8 8 9 9 10 10 11 12 13 13 14 14 15 15 16 15
4 4 4 4 4 3 3 3 3 4 4 5 6 7 6 5 4 3 2 2 2 3 3 4 4 4 5 5 5 5 5 6 7 7 7 7 6 6 6 6 5 6 8 9 11 13 15 16 17 18 17 13 9 8 8 9 9 10 11 12 13 13 14 15 15 15 15 15 15
4 4 4 4 4 4 4 3 3 4 5 6 6 5 4 3 3 2 2 2 3 3 4 4 5 5 5 5 5 6 6 6 6 7 7 7 6 6 6 6 5 6 7 10 12 14 16 18 19 19 17 12 9 9 9 9 9 9 10 12 13 14 14 14 14 15 15 15 15
2 2 3 3 3 3 3 3 4 5 6 6 4 3 2 2 2 2 2 2 3 4 4 4 5 5 6 6 6 6 6 6 6 6 7 7 6 5 5 5 5 6 8 11 13 16 18 19 20 20 17 12 10 10 9 9 9 9 10 11 11 12 13 13 12 12 13 14 15
1 0 1 1 2 3 4 4 5 5 4 3 2 2 2 2 2 2 3 2 3 3 4 4 5 6 6 6 6 6 6 7 7 6 6 6 5 5 4 4 5 6 8 11 14 17 18 20 21 21 19 14 11 9 9 8 9 10 10 10 10 11 12 12 11 10 10 12 14
2 2 2 2 3 3 4 4 3 2 2 1 2 2 2 2 2 3 3 3 3 3 4 4 6 6 7 7 7 7 7 7 7 6 5 4 4 4 5 4 6 7 9 12 15 17 19 20 21 21 19 13 10 9 8 8 8 9 9 9 9 9 9 9 8 7 7 8 10
2 2 3 3 3 3 3 3 2 2 1 1 2 2 2 2 3 3 3 3 3 4 4 5 6 7 7 7 6 7 7 7 7 6 4 3 3 4 5 5 6 7 9 11 14 17 19 20 21 21 19 14 11 9 8 7 8 8 9 8 8 7 7 6 6 6 6 6 7
Wind_Direction
298 295 288 278 267 254 237 123 94 100 106 106 108 109 108 104 99 95 93 95 97 97 97 96 95 91 85 77 70 61 50 43 38 35 32 27 19 9 358 347 339 331 324 315 306 298 288 276 269 265 263 261 261 261 261 259 259 260 262 262 262 261 261 260 261 261 261 260 260
302 299 297 296 44 77 77 73 79 88 95 98 102 104 104 101 98 96 94 91 94 94 93 89 83 76 69 62 56 50 43 39 35 32 27 20 8 355 342 332 324 316 308 299 291 283 274 265 262 263 265 267 267 267 267 263 261 263 265 265 264 264 264 263 262 260 260 260 261
309 318 24 92 97 96 93 89 92 95 96 96 95 96 98 99 99 99 97 94 90 86 83 79 71 63 57 51 48 46 43 41 36 31 22 10 351 335 323 313 305 297 290 282 275 268 262 257 257 261 265 270 269 268 268 268 264 265 265 264 265 265 265 265 263 263 262 263 262
17 59 87 99 108 110 109 108 106 102 99 97 94 93 94 97 98 98 95 89 81 76 72 68 63 57 53 51 49 47 45 42 38 28 12 345 322 306 296 289 284 279 273 267 262 258 256 256 261 265 268 269 267 267 267 268 265 264 263 262 263 264 264 264 264 264 265 266 263
73 87 102 108 112 113 114 116 113 108 102 100 98 97 96 98 98 96 91 83 78 72 67 63 61 59 57 56 54 50 46 40 33 15 337 305 287 278 272 269 267 264 260 255 252 253 257 262 268 271 270 267 265 264 263 262 262 262 263 263 262 262 263 264 265 265 266 267 266
104 100 102 107 109 109 110 113 111 108 105 104 102 100 99 97 96 93 89 85 78 72 68 66 67 67 66 63 58 52 42 27 3 315 285 275 267 264 262 261 258 254 251 248 250 256 261 265 269 270 267 265 263 262 260 258 259 261 262 263 262 262 262 263 264 265 266 267 268
113 106 104 106 107 108 109 108 105 103 102 101 99 97 94 90 87 84 81 79 75 73 73 76 79 80 77 69 60 49 30 343 295 272 265 262 260 259 259 258 255 252 251 253 258 262 264 263 264 265 263 261 262 259 257 255 256 257 260 262 261 261 261 262 264 266 266 266 267
99 101 103 104 106 108 108 108 105 102 99 97 95 93 89 83 80 78 77 77 80 84 88 92 90 87 82 73 63 40 309 271 263 257 255 255 257 258 258 257 256 255 256 258 260 261 260 259 259 259 259 259 260 258 256 254 254 255 258 260 262 262 262 263 264 266 267 267 268
81 86 90 94 98 103 106 106 105 103 101 97 92 88 85 82 81 82 84 88 94 98 99 96 92 88 86 84 108 239 245 247 247 247 247 249 252 255 256 256 256 256 257 257 257 256 256 257 257 257 256 257 259 259 259 257 257 259 260 262 265 266 265 264 265 266 268 269 270
84 85 87 88 91 96 100 101 100 99 97 94 90 87 85 85 88 93 98 104 105 103 99 98 98 101 114 172 216 229 234 236 239 240 242 244 247 249 250 251 251 253 254 253 253 251 251 254 257 259 259 259 261 263 264 263 263 263 265 267 269 270 270 269 268 268 269 270 270
96 96 96 96 95 95 95 95 94 93 92 92 91 91 93 96 101 106 109 109 105 104 106 113 125 149 181 207 221 227 230 231 233 236 239 242 244 245 246 247 247 250 251 252 253 253 255 259 265 268 268 269 269 270 271 271 270 270 270 271 271 273 273 273 271 270 270 270 270
104 105 105 105 102 98 94 92 91 92 93 96 99 103 108 116 120 120 116 109 109 114 128 147 169 188 203 216 223 228 232 234 236 240 244 246 246 246 247 248 251 255 260 264 267 271 274 276 278 278 278 278 277 277 277 276 276 275 275 275 275 275 274 274 272 271 270 269 270
109 110 110 111 106 101 96 93 94 96 100 105 111 118 126 132 131 126 119 118 126 140 162 179 191 202 213 223 230 234 239 243 247 250 253 254 254 256 258 263 267 271 275 278 280 282 282 282 281 281 282 282 281 280 279 279 279 278 279 279 278 276 275 274 272 271 270 269 269
110 112 113 111 108 103 100 98 100 105 111 117 124 129 132 131 126 122 123 133 149 165 180 190 200 211 221 230 237 243 250 257 262 266 267 268 269 270 273 275 278 280 282 283 281 280 280 280 279 280 281 282 283 282 282 281 280 280 280 280 279 278 277 276 275 274 273 272 271
111 113 113 110 107 105 103 104 108 115 122 127 131 129 123 118 115 117 124 140 156 169 183 197 213 225 232 239 247 255 262 268 270 273 273 274 275 275 277 278 279 280 281 281 280 278 277 277 278 279 281 282 283 284 284 284 283 282 281 280 280 279 279 279 278 277 276 274 274
114 114 113 109 106 106 106 109 114 121 126 130 128 118 111 109 111 114 119 131 144 163 192 222 236 243 249 254 260 264 268 271 272 273 274 274 274 275 275 276 277 278 278 279 280 279 278 277 277 278 280 282 283 285 285 285 284 283 282 280 280 280 280 280 280 279 278 276 275
113 113 110 107 107 109 111 115 119 124 126 126 116 110 108 110 110 112 118 131 148 180 216 235 241 248 255 261 264 267 270 271 271 271 271 271 271 272 273 273 274 275 276 278 279 280 281 280 280 280 281 282 283 284 285 284 284 283 281 280 279 279 278 278 278 278 278 277 275
109 109 109 108 111 114 118 122 123 124 123 119 112 109 109 112 113 120 132 151 169 195 218 235 242 248 254 260 264 266 268 270 269 268 268 268 268 269 271 272 273 275 276 278 280 281 282 284 284 284 284 284 283 283 283 282 281 280 279 278 278 277 276 276 276 276 275 275 274
106 108 111 114 118 122 124 125 126 123 119 112 109 107 107 109 115 123 138 160 179 197 217 237 251 259 264 267 270 270 270 269 268 267 267 267 268 270 271 273 275 277 279 280 282 283 284 285 285 285 284 283 282 281 280 279 278 277 276 276 275 274 274 274 273 273 272 272 273
108 112 116 122 124 126 125 123 118 110 103 98 94 92 90 91 92 92 91 182 226 230 242 261 276 281 283 280 279 276 273 269 268 268 268 268 270 272 273 275 278 280 281 283 283 284 284 284 283 283 282 280 280 279 278 276 275 274 273 273 272 271 270 270 270 270 270 270 271
109 113 115 118 116 113 107 99 93 88 84 80 76 71 66 59 48 31 358 309 294 289 290 289 290 287 285 282 278 275 272 270 268 268 269 271 272 273 275 278 280 282 283 284 283 283 282 281 280 280 278 277 276 275 274 274 273 271 270 269 268 268 267 267 267 268 269 269 271
95 90 86 81 77 74 72 70 72 72 69 64 59 54 46 34 10 337 306 288 287 290 291 290 285 281 277 273 271 269 269 270 270 270 271 273 275 276 278 280 282 283 283 282 281 281 280 279 277 276 275 274 273 272 271 270 269 269 268 267 267 266 266 266 267 269 270 272 275
65 62 59 56 53 51 52 56 59 58 54 51 46 39 25 354 312 288 277 276 280 284 285 283 278 273 270 267 267 268 271 274 275 276 275 276 278 279 280 281 281 281 280 279 279 278 277 277 275 274 272 271 270 269 268 267 267 268 268 269 269 268 268 268 269 270 272 274 276
46 44 41 39 37 38 42 45 48 49 46 40 30 8 329 289 274 269 270 277 284 284 282 279 275 272 271 271 271 272 275 277 279 279 280 279 279 280 280 280 280 278 277 276 275 273 272 272 272 272 271 270 270 270 270 270 271 272 273 274 275 275 274 273 272 271 271 272 273
40 37 34 28 26 26 31 37 41 41 37 19 338 293 273 263 261 263 273 285 286 283 279 277 276 277 277 278 278 277 276 276 277 278 279 280 280 279 279 279 278 277 276 275 273 272 271 270 271 273 274 276 278 280 282 283 283 285 286 286 287 287 286 284 281 279 277 275 275
40 36 30 23 18 16 17 23 27 21 355 303 273 264 260 259 262 270 281 287 283 280 278 278 279 280 281 280 280 279 278 275 275 275 277 279 280 279 279 279 278 277 277 276 275 275 274 274 275 276 278 282 284 287 289 290 292 294 295 295 295 294 293 291 289 286 284 281 280
46 40 31 22 13 3 354 359 357 304 270 261 259 260 262 268 277 286 288 285 281 279 278 279 279 278 277 277 278 277 276 275 275 275 275 276 278 279 279 279 278 278 278 277 277 278 279 281 282 284 285 285 284 282 283 285 290 293 293 292 291 290 289 287 287 286 286 284 283
65 60 49 42 323 249 240 234 234 239 244 249 254 261 270 281 290 292 290 286 282 280 280 279 276 274 272 274 273 272 272 274 276 277 277 277 278 278 278 279 279 278 279 279 281 283 285 288 291 293 294 294 291 286 283 283 288 289 289 287 286 285 284 284 284 285 286 286 285
116 144 177 193 203 209 214 220 227 235 242 250 259 268 279 291 296 295 290 285 281 278 277 275 273 273 274 274 272 273 276 277 278 279 280 281 281 281 280 280 280 279 280 282 285 288 291 293 296 298 300 304 302 298 292 288 289 290 289 287 286 286 286 286 287 287 287 286 285
175 190 198 200 204 207 213 221 230 239 247 255 263 275 288 298 297 290 284 278 275 272 270 269 272 275 275 273 277 280 282 281 281 282 283 284 284 283 283 281 282 283 285 287 290 292 294 297 299 301 304 309 308 304 297 292 291 291 290 289 288 288 287 287 286 285 284 282 281
196 202 205 205 208 212 219 227 236 244 250 255 268 285 295 294 285 279 274 271 270 269 270 273 277 278 278 278 282 284 285 284 285 286 286 285 285 284 284 284 285 286 288 291 292 294 297 300 303 307 311 314 311 307 302 296 293 291 289 287 286 285 284 283 281 278 276 275 273
208 211 213 213 215 220 226 233 239 244 251 265 282 288 284 276 271 267 266 266 270 275 280 285 288 287 288 290 290 289 288 288 289 288 287 286 285 286 287 288 288 289 290 293 296 299 302 307 312 315 316 318 313 309 303 298 294 290 287 284 282 280 278 276 273 271 269 267 266
216 218 220 221 224 228 231 234 238 247 262 280 278 272 268 266 265 266 268 270 273 278 282 286 289 291 292 293 293 292 291 290 289 288 287 286 286 288 289 291 291 292 294 298 302 307 313 318 319 319 318 317 313 308 302 297 292 287 284 281 277 274 271 268 266 265 264 263 262
218 222 226 229 231 232 234 235 244 255 264 264 262 262 263 265 267 270 273 274 275 276 279 282 285 287 288 289 290 291 291 291 291 290 289 288 289 291 292 293 293 297 301 306 312 317 320 322 320 318 316 314 310 304 298 292 287 282 279 275 272 270 267 265 264 263 263 262 262
224 226 230 234 237 239 241 243 246 248 252 257 263 266 268 268 270 271 272 270 278 291 298 296 294 293 292 292 291 291 291 292 292 291 291 291 293 294 294 293 294 301 309 315 320 321 321 320 317 315 313 310 305 299 292 288 284 279 276 273 271 269 267 266 265 264 262 262 261
236 232 231 234 239 242 242 241 245 254 264 272 273 273 273 273 271 269 268 277 304 313 309 304 302 299 297 296 294 292 290 290 292 293 293 294 295 296 295 295 297 306 315 321 322 321 319 317 315 313 310 307 301 294 289 286 282 277 274 272 270 268 267 266 265 263 262 261 260
246 234 225 226 232 235 239 246 266 280 284 281 275 272 270 271 274 279 291 315 322 315 308 301 299 296 293 291 290 289 288 287 291 294 295 295 295 295 296 298 302 310 317 322 321 320 318 317 314 312 309 304 298 293 289 285 281 277 274 272 270 269 268 267 266 264 262 260 259
236 207 200 212 225 240 259 280 287 286 282 277 272 268 268 275 291 300 308 320 315 306 299 296 293 290 287 287 288 289 290 290 291 293 294 294 293 294 298 305 310 314 319 322 322 320 318 316 313 311 308 301 297 293 289 285 282 278 275 273 273 271 270 269 268 266 264 261 260
21 173 202 234 264 281 289 293 288 283 277 274 280 291 302 311 308 304 302 302 297 292 290 290 289 287 288 290 293 295 295 294 293 292 291 291 291 297 308 316 317 318 320 322 321 319 317 315 311 309 307 302 298 294 290 286 283 280 278 277 277 275 274 273 272 271 269 266 266
335 314 301 297 297 297 297 298 295 292 289 304 319 318 313 308 301 297 297 295 291 288 287 288 289 290 292 295 297 298 298 298 297 294 291 288 294 310 323 324 320 319 319 321 320 318 315 312 310 309 308 303 301 297 293 290 287 285 283 282 283 283 283 283 283 281 279 276 273
302 301 303 304 305 308 312 320 323 329 337 344 325 309 299 296 296 298 299 300 295 293 292 293 293 294 295 298 299 300 300 300 300 298 296 293 305 321 329 326 322 320 319 319 318 315 313 311 310 310 310 307 305 303 300 298 295 292 292 292 294 298 301 304 303 298 293 289 284